When you browse on this site, cookies collect data to enhance your experience and personalize the content and advertising you see.
Visit our Privacy Policy to learn more. By continuing to use the site, you agree to this use of cookies and data.
  • In Slovakia
  • List of Countries
  • For 7 days
  • Water Temperature
  • Satellite Maps
  • Weather Map
  • Weather Widgets
  • user-avatar
    Login

    Hourly Weather Kranevo

    Today, 25 June, Tuesday

    Time Temperature Precipitation Wind Pressure Humidity
    00:00 +24°C° 0 mm 3 mps 757 mmHg 68%
    01:00 +23°C° 0 mm 4 mps 757 mmHg 69%
    02:00 +23°C° 0 mm 4 mps 757 mmHg 70%
    03:00 +23°C° 0 mm 5 mps 757 mmHg 73%
    04:00 +22°C° 0 mm 5 mps 757 mmHg 75%
    05:00 +22°C° 0 mm 5 mps 757 mmHg 78%
    06:00 +23°C° 0 mm 6 mps 757 mmHg 74%
    07:00 +26°C° 0 mm 7 mps 757 mmHg 69%
    08:00 +27°C° 0 mm 8 mps 758 mmHg 65%
    09:00 +28°C° 0.2 mm 8 mps 758 mmHg 64%
    10:00 +29°C° 0.2 mm 8 mps 758 mmHg 62%
    11:00 +29°C° 0.2 mm 9 mps 758 mmHg 61%
    12:00 +31°C° 0.6 mm 8 mps 758 mmHg 59%
    13:00 +31°C° 0.6 mm 8 mps 758 mmHg 58%
    14:00 +30°C° 0.6 mm 7 mps 758 mmHg 56%
    15:00 +30°C° 0.1 mm 7 mps 758 mmHg 58%
    16:00 +30°C° 0.1 mm 7 mps 758 mmHg 61%
    17:00 +29°C° 0.1 mm 7 mps 757 mmHg 63%
    18:00 +28°C° 0.1 mm 6 mps 758 mmHg 67%
    19:00 +27°C° 0.1 mm 6 mps 758 mmHg 71%
    20:00 +26°C° 0.1 mm 5 mps 759 mmHg 74%
    21:00 +26°C° 0.2 mm 6 mps 759 mmHg 77%
    22:00 +24°C° 0.2 mm 6 mps 759 mmHg 79%
    23:00 +24°C° 0.2 mm 6 mps 759 mmHg 81%

    Tomorrow, 26 June, Wednesday

    Time Temperature Precipitation Wind Pressure Humidity
    00:00 +23°C° 0.1 mm 6 mps 759 mmHg 83%
    01:00 +23°C° 0.1 mm 6 mps 759 mmHg 84%
    02:00 +22°C° 0.1 mm 6 mps 759 mmHg 86%
    03:00 +22°C° 0 mm 6 mps 759 mmHg 88%
    04:00 +22°C° 0 mm 6 mps 759 mmHg 91%
    05:00 +22°C° 0 mm 6 mps 759 mmHg 93%
    06:00 +23°C° 0.4 mm 7 mps 759 mmHg 89%
    07:00 +24°C° 0.4 mm 8 mps 760 mmHg 84%
    08:00 +26°C° 0.4 mm 9 mps 760 mmHg 80%
    09:00 +27°C° 1.3 mm 9 mps 760 mmHg 78%
    10:00 +27°C° 1.3 mm 9 mps 760 mmHg 77%
    11:00 +27°C° 1.3 mm 10 mps 760 mmHg 76%
    12:00 +28°C° 0.5 mm 10 mps 760 mmHg 71%
    13:00 +29°C° 0.5 mm 10 mps 760 mmHg 67%
    14:00 +29°C° 0.5 mm 10 mps 760 mmHg 62%
    15:00 +29°C° 0 mm 9 mps 760 mmHg 63%
    16:00 +29°C° 0 mm 9 mps 759 mmHg 63%
    17:00 +28°C° 0 mm 9 mps 759 mmHg 64%
    18:00 +27°C° 0 mm 8 mps 759 mmHg 68%
    19:00 +26°C° 0 mm 7 mps 759 mmHg 73%
    20:00 +24°C° 0 mm 6 mps 759 mmHg 78%
    21:00 +23°C° 0 mm 5 mps 759 mmHg 81%
    22:00 +22°C° 0 mm 5 mps 759 mmHg 83%
    23:00 +22°C° 0 mm 4 mps 759 mmHg 86%

    Day after tomorrow, 27 June, Thursday

    Time Temperature Precipitation Wind Pressure Humidity
    00:00 +22°C° 0 mm 4 mps 759 mmHg 85%
    01:00 +21°C° 0 mm 4 mps 758 mmHg 85%
    02:00 +21°C° 0 mm 4 mps 758 mmHg 84%
    03:00 +21°C° 0 mm 4 mps 758 mmHg 83%
    04:00 +20°C° 0 mm 5 mps 758 mmHg 82%
    05:00 +20°C° 0 mm 5 mps 757 mmHg 81%
    06:00 +22°C° 0 mm 4 mps 757 mmHg 74%
    07:00 +25°C° 0 mm 4 mps 757 mmHg 66%
    08:00 +26°C° 0 mm 4 mps 757 mmHg 59%
    09:00 +28°C° 0 mm 4 mps 757 mmHg 54%
    10:00 +29°C° 0 mm 3 mps 757 mmHg 48%
    11:00 +30°C° 0 mm 3 mps 757 mmHg 42%
    12:00 +31°C° 0 mm 3 mps 756 mmHg 41%
    13:00 +31°C° 0 mm 3 mps 756 mmHg 40%
    14:00 +32°C° 0 mm 2 mps 755 mmHg 40%
    15:00 +31°C° 0 mm 2 mps 755 mmHg 43%
    16:00 +31°C° 0 mm 2 mps 754 mmHg 45%
    17:00 +30°C° 0 mm 2 mps 754 mmHg 48%
    18:00 +28°C° 0 mm 2 mps 753 mmHg 57%
    19:00 +27°C° 0 mm 2 mps 753 mmHg 65%
    20:00 +25°C° 0 mm 2 mps 753 mmHg 74%
    21:00 +24°C° 0 mm 2 mps 753 mmHg 73%
    22:00 +24°C° 0 mm 2 mps 753 mmHg 72%
    23:00 +24°C° 0 mm 3 mps 753 mmHg 72%

    28 June, Friday

    Time Temperature Precipitation Wind Pressure Humidity
    00:00 +24°C° 0 mm 3 mps 752 mmHg 72%
    01:00 +24°C° 0 mm 3 mps 752 mmHg 72%
    02:00 +24°C° 0 mm 3 mps 752 mmHg 71%
    03:00 +22°C° 0 mm 4 mps 752 mmHg 77%
    04:00 +21°C° 0 mm 4 mps 752 mmHg 82%
    05:00 +21°C° 0 mm 4 mps 752 mmHg 87%
    06:00 +22°C° 0 mm 5 mps 752 mmHg 82%
    07:00 +25°C° 0 mm 5 mps 752 mmHg 76%
    08:00 +26°C° 0 mm 6 mps 752 mmHg 71%
    09:00 +27°C° 0 mm 6 mps 752 mmHg 66%
    10:00 +28°C° 0 mm 6 mps 753 mmHg 61%
    11:00 +29°C° 0 mm 6 mps 753 mmHg 56%
    12:00 +27°C° 0 mm 6 mps 753 mmHg 58%
    13:00 +26°C° 0 mm 6 mps 753 mmHg 60%
    14:00 +24°C° 0 mm 7 mps 753 mmHg 62%
    15:00 +24°C° 0 mm 6 mps 753 mmHg 61%
    16:00 +25°C° 0 mm 5 mps 753 mmHg 60%
    17:00 +26°C° 0 mm 4 mps 753 mmHg 59%
    18:00 +25°C° 0 mm 4 mps 754 mmHg 59%
    19:00 +25°C° 0 mm 5 mps 754 mmHg 58%
    20:00 +23°C° 0 mm 5 mps 754 mmHg 58%
    21:00 +22°C° 0 mm 6 mps 754 mmHg 56%
    22:00 +21°C° 0 mm 6 mps 755 mmHg 55%
    23:00 +20°C° 0 mm 6 mps 755 mmHg 53%

    29 June, Saturday

    Time Temperature Precipitation Wind Pressure Humidity
    00:00 +20°C° 0 mm 6 mps 755 mmHg 55%
    01:00 +19°C° 0 mm 6 mps 755 mmHg 57%
    02:00 +17°C° 0 mm 6 mps 755 mmHg 60%
    03:00 +17°C° 0 mm 5 mps 755 mmHg 62%
    04:00 +17°C° 0 mm 4 mps 755 mmHg 64%
    05:00 +17°C° 0 mm 4 mps 755 mmHg 65%
    06:00 +18°C° 0 mm 3 mps 755 mmHg 61%
    07:00 +20°C° 0 mm 3 mps 755 mmHg 56%
    08:00 +22°C° 0 mm 3 mps 755 mmHg 52%
    09:00 +24°C° 0 mm 3 mps 755 mmHg 48%
    10:00 +26°C° 0 mm 3 mps 755 mmHg 44%
    11:00 +27°C° 0 mm 3 mps 755 mmHg 41%
    12:00 +27°C° 0 mm 3 mps 755 mmHg 41%
    13:00 +27°C° 0 mm 3 mps 755 mmHg 42%
    14:00 +28°C° 0 mm 3 mps 754 mmHg 42%
    15:00 +26°C° 0.2 mm 4 mps 754 mmHg 50%
    16:00 +25°C° 0.2 mm 4 mps 754 mmHg 59%
    17:00 +22°C° 0.2 mm 4 mps 754 mmHg 67%
    18:00 +21°C° 0.6 mm 4 mps 754 mmHg 74%
    19:00 +19°C° 0.6 mm 5 mps 754 mmHg 81%
    20:00 +17°C° 0.6 mm 5 mps 755 mmHg 88%
    21:00 +16°C° 0.9 mm 5 mps 755 mmHg 82%
    22:00 +16°C° 0.9 mm 6 mps 756 mmHg 77%
    23:00 +15°C° 0.9 mm 6 mps 756 mmHg 71%

    30 June, Sunday

    Time Temperature Precipitation Wind Pressure Humidity
    00:00 +14°C° 0 mm 6 mps 756 mmHg 72%
    01:00 +14°C° 0 mm 7 mps 756 mmHg 73%
    02:00 +12°C° 0 mm 7 mps 756 mmHg 74%
    03:00 +11°C° 0 mm 8 mps 757 mmHg 74%
    04:00 +11°C° 0 mm 8 mps 757 mmHg 75%
    05:00 +11°C° 0 mm 8 mps 757 mmHg 75%
    06:00 +12°C° 0 mm 8 mps 757 mmHg 68%
    07:00 +15°C° 0 mm 9 mps 758 mmHg 61%
    08:00 +17°C° 0 mm 9 mps 758 mmHg 53%
    09:00 +18°C° 0 mm 9 mps 759 mmHg 48%
    10:00 +21°C° 0 mm 8 mps 759 mmHg 44%
    11:00 +22°C° 0 mm 8 mps 759 mmHg 39%
    12:00 +22°C° 0 mm 7 mps 759 mmHg 38%
    13:00 +23°C° 0 mm 7 mps 759 mmHg 38%
    14:00 +24°C° 0 mm 6 mps 759 mmHg 38%
    15:00 +23°C° 0 mm 7 mps 759 mmHg 39%
    16:00 +23°C° 0 mm 7 mps 759 mmHg 40%
    17:00 +22°C° 0 mm 7 mps 759 mmHg 42%
    18:00 +21°C° 0 mm 6 mps 759 mmHg 46%
    19:00 +20°C° 0 mm 5 mps 759 mmHg 49%
    20:00 +18°C° 0 mm 4 mps 759 mmHg 53%
    21:00 +17°C° 0 mm 4 mps 760 mmHg 56%
    22:00 +17°C° 0 mm 4 mps 760 mmHg 60%
    23:00 +15°C° 0 mm 4 mps 760 mmHg 63%
    Show more